Regional Weather Roundup
Issued by NWS Kansas City/Pleasant Hill, MO

Home | Current Version | Previous Version | Text Only | Print | Product List | Glossary On
Versions: 1 2 3 4 5 6 7 8 9 10 11 12 13 14 15 16 17 18 19 20 21 22 23 24 25 26 27
000
ASUS43 KEAX 291010
RWREAX

WEATHER ROUNDUP FOR EASTERN KANSAS AND NORTHWEST MISSOURI
NATIONAL WEATHER SERVICE KANSAS CITY/PLEASANT HILL MO
500 AM CDT SUN MAY 29 2016

KSZ040-057-103>105-MOZ028-029-037-043-291100-
...KANSAS CITY METROPOLITAN AREA...

CITY           SKY/WX    TMP DP  RH WIND       PRES   REMARKS
K.C. INTL      CLEAR     60  57  89 S8        30.04R
K.C. DOWNTOWN  CLEAR     64  59  83 CALM      30.03S
LEES SUMMIT    CLEAR     63  58  83 SW6       30.05R
OLATHE - IXD   CLEAR     61  58  90 S5        30.06R
OLATHE - OJC   CLEAR     59  57  93 S3        30.05S
LAWRENCE       CLEAR     57  56  96 E3        30.05R

$$

MOZ001>008-011>017-020>025-030>033-038>040-044>046-053-054-291100-
...NORTHERN AND CENTRAL MISSOURI...

CITY           SKY/WX    TMP DP  RH WIND       PRES   REMARKS
ST. JOSEPH     CLEAR     59  58  96 S6        30.03R
MOSBY          SUNNY     59  59 100 CALM      30.03S
WARRENSBURG    CLEAR     61  59  94 S5        30.05R
WHITEMAN AFB   CLEAR     61  60  99 SW6       30.04S
CLINTON        CLEAR     63  63 100 CALM      30.06R FOG
SEDALIA        CLEAR     64  62  93 SW6       30.05S
WARSAW         NOT AVBL
CHILLICOTHE      N/A     64  59  83 CALM      30.04R
KIRKSVILLE     CLEAR     61  58  90 W5        30.03R

$$

MOZ041-047>049-056>058-063>065-088>090-097-291100-
...EASTERN AND SOUTHERN MISSOURI...

CITY           SKY/WX    TMP DP  RH WIND       PRES   REMARKS
ST. LOUIS INTL PTCLDY    67  59  75 CALM      30.04R
SPIRIT OF STL  CLEAR     62  61  96 CALM      30.04R
COLUMBIA       CLEAR     64  61  90 SW3       30.05R
JEFFERSON CITY CLEAR     63  61  93 CALM      30.04R
ROLLA          CLEAR     62  61  96 CALM      30.05R
SPRINGFIELD    CLEAR     61  59  93 S5        30.08R
JOPLIN         CLEAR     63  62  97 S5        30.07S
WEST PLAINS    CLEAR     64  61  90 CALM      30.09R FOG

$$

IAZ060-094-KSZ022-034>040-054-083-096-NEZ052-066-093-291100-
...KANSAS...SOUTHEAST NEBRASKA AND IOWA...

CITY           SKY/WX    TMP DP  RH WIND       PRES   REMARKS
TOPEKA         CLEAR     58  56  93 CALM      30.04R
MANHATTAN      CLEAR     57  55  93 CALM      30.03S
EMPORIA        CLEAR     59  56  89 S7        30.06R
CHANUTE        CLEAR     60  59  96 CALM      30.07R
WICHITA        PTCLDY    60  57  89 S3        30.07R
OMAHA          CLEAR     57  53  86 SE3       30.01R
LINCOLN        PTCLDY    56  54  93 CALM      30.03R
FALLS CITY     CLEAR     59  57  93 CALM      30.02R
LAMONI         CLEAR     57  55  93 W7        30.01S
DES MOINES     PTCLDY    59  55  87 W5        29.98R

$$





USA.gov is the U.S. government's official web portal to all federal, state and local government web resources and services.